Tracking 29892 objects as of 21-Nov-2024
HD Live streaming from Space Station
objects crossing your sky now

TIANMU-1 11

Track TIANMU-1 11 now!
10-day predictions


NORAD ID: 58645
Int'l Code: 2023-205A
Perigee: 511.2 km
Apogee: 524.7 km
Inclination: 97.4 °
Period: 94.8 minutes
Semi major axis: 6888 km
RCS: Unknown
Launch date: December 25, 2023
Source: People's Republic of China (PRC)
Launch site: Jiuquan Satellite Launch Center, China (JSC)
Your satellite tracking list
Your tracking list is empty




NASA's NSSDC Master Catalog

Two Line Element Set (TLE):
1 58645U 23205A   24326.09089968  .00008686  00000-0  42547-3 0  9999
2 58645  97.3915 347.3569 0009735 211.1888 148.8769 15.18355712 50291
Source of the keplerian elements: AFSPC